When you browse on this site, cookies collect data to enhance your experience and personalize the content and advertising you see.
Visit our Privacy Policy to learn more. By continuing to use the site, you agree to this use of cookies and data.
  • In Spain
  • List of Countries
  • For 7 days
  • Water Temperature
  • Weather Map
  • Weather Widgets
  • user-avatar
    Login

    Hourly Weather Ordino

    Today, 7 December, Saturday

    Time Temperature Precipitation Wind Pressure Humidity
    00:00 +2°C° 0 mm 1 mps 634 mmHg 82%
    01:00 +2°C° 0 mm 1 mps 634 mmHg 82%
    02:00 +2°C° 0 mm 1 mps 633 mmHg 81%
    03:00 +2°C° 0 mm 1 mps 633 mmHg 80%
    04:00 +2°C° 0 mm 1 mps 633 mmHg 78%
    05:00 +2°C° 0 mm 1 mps 633 mmHg 77%
    06:00 +2°C° 0 mm 1 mps 634 mmHg 75%
    07:00 +3°C° 0 mm 1 mps 634 mmHg 73%
    08:00 +4°C° 0 mm 1 mps 635 mmHg 72%
    09:00 +5°C° 0 mm 1 mps 635 mmHg 70%
    10:00 +7°C° 0 mm 1 mps 636 mmHg 67%
    11:00 +8°C° 0 mm 1 mps 636 mmHg 65%
    12:00 +9°C° 0 mm 1 mps 636 mmHg 62%
    13:00 +8°C° 0 mm 0 mps 636 mmHg 66%
    14:00 +7°C° 0 mm 0 mps 636 mmHg 71%
    15:00 +7°C° 0 mm 0 mps 635 mmHg 76%
    16:00 +6°C° 0 mm 1 mps 635 mmHg 81%
    17:00 +5°C° 0 mm 1 mps 634 mmHg 85%
    18:00 +3°C° 0 mm 1 mps 634 mmHg 90%
    19:00 +3°C° 0 mm 1 mps 634 mmHg 88%
    20:00 +3°C° 0 mm 1 mps 634 mmHg 86%
    21:00 +3°C° 0 mm 1 mps 634 mmHg 84%
    22:00 +2°C° 0 mm 1 mps 634 mmHg 81%
    23:00 +2°C° 0 mm 1 mps 634 mmHg 78%

    Tomorrow, 8 December, Sunday

    Time Temperature Precipitation Wind Pressure Humidity
    00:00 +2°C° 0 mm 1 mps 634 mmHg 75%
    01:00 +2°C° 0 mm 1 mps 634 mmHg 72%
    02:00 +2°C° 0 mm 1 mps 634 mmHg 68%
    03:00 +2°C° 0 mm 1 mps 633 mmHg 65%
    04:00 +2°C° 0 mm 1 mps 633 mmHg 63%
    05:00 +2°C° 0 mm 1 mps 633 mmHg 60%
    06:00 +2°C° 0 mm 1 mps 633 mmHg 58%
    07:00 +4°C° 0 mm 1 mps 634 mmHg 56%
    08:00 +5°C° 0 mm 1 mps 635 mmHg 55%
    09:00 +5°C° 0 mm 0 mps 635 mmHg 53%
    10:00 +7°C° 0 mm 0 mps 635 mmHg 54%
    11:00 +9°C° 0 mm 1 mps 635 mmHg 55%
    12:00 +10°C° 0 mm 1 mps 635 mmHg 55%
    13:00 +9°C° 0 mm 1 mps 635 mmHg 62%
    14:00 +8°C° 0 mm 1 mps 634 mmHg 69%
    15:00 +8°C° 0 mm 1 mps 634 mmHg 76%
    16:00 +7°C° 0 mm 1 mps 633 mmHg 80%
    17:00 +6°C° 0 mm 1 mps 633 mmHg 84%
    18:00 +5°C° 0 mm 1 mps 633 mmHg 88%
    19:00 +5°C° 0.4 mm 1 mps 633 mmHg 90%
    20:00 +6°C° 0.4 mm 1 mps 634 mmHg 91%
    21:00 +6°C° 0.4 mm 1 mps 634 mmHg 92%
    22:00 +5°C° 0.1 mm 1 mps 634 mmHg 93%
    23:00 +4°C° 0.1 mm 2 mps 634 mmHg 94%

    Day after tomorrow, 9 December, Monday

    Time Temperature Precipitation Wind Pressure Humidity
    00:00 +3°C° 0.1 mm 2 mps 633 mmHg 95%
    01:00 +3°C° 0 mm 2 mps 633 mmHg 87%
    02:00 +2°C° 0 mm 2 mps 633 mmHg 80%
    03:00 +1°C° 0 mm 2 mps 632 mmHg 72%
    04:00 +1°C° 0 mm 2 mps 632 mmHg 75%
    05:00 -1°C° 0 mm 2 mps 632 mmHg 78%
    06:00 -1°C° 0 mm 3 mps 632 mmHg 80%
    07:00 0°C° 0.3 mm 3 mps 632 mmHg 80%
    08:00 0°C° 0.3 mm 3 mps 633 mmHg 81%
    09:00 +1°C° 0.3 mm 3 mps 633 mmHg 81%
    10:00 +1°C° 0.5 mm 3 mps 633 mmHg 78%
    11:00 0°C° 0.5 mm 4 mps 633 mmHg 76%
    12:00 +1°C° 0.5 mm 4 mps 633 mmHg 73%
    13:00 +1°C° 0.4 mm 4 mps 633 mmHg 74%
    14:00 0°C° 0.4 mm 4 mps 633 mmHg 75%
    15:00 0°C° 0.4 mm 4 mps 633 mmHg 76%
    16:00 -1°C° 0.5 mm 4 mps 633 mmHg 81%
    17:00 -2°C° 0.5 mm 4 mps 633 mmHg 87%
    18:00 -3°C° 0.5 mm 4 mps 633 mmHg 92%
    19:00 -3°C° 0.4 mm 4 mps 633 mmHg 90%
    20:00 -3°C° 0.4 mm 4 mps 634 mmHg 89%
    21:00 -3°C° 0.4 mm 4 mps 634 mmHg 88%
    22:00 -3°C° 0.1 mm 4 mps 634 mmHg 87%
    23:00 -3°C° 0.1 mm 4 mps 634 mmHg 87%

    10 December, Tuesday

    Time Temperature Precipitation Wind Pressure Humidity
    00:00 -3°C° 0.1 mm 4 mps 634 mmHg 86%
    01:00 -3°C° 0 mm 4 mps 634 mmHg 85%
    02:00 -3°C° 0 mm 4 mps 634 mmHg 84%
    03:00 -3°C° 0 mm 4 mps 634 mmHg 84%
    04:00 -3°C° 0 mm 4 mps 634 mmHg 84%
    05:00 -3°C° 0 mm 4 mps 634 mmHg 83%
    06:00 -4°C° 0 mm 4 mps 634 mmHg 83%
    07:00 -2°C° 0 mm 3 mps 635 mmHg 76%
    08:00 -1°C° 0 mm 3 mps 635 mmHg 69%
    09:00 0°C° 0 mm 3 mps 636 mmHg 62%
    10:00 +2°C° 0 mm 2 mps 636 mmHg 58%
    11:00 +4°C° 0 mm 2 mps 636 mmHg 54%
    12:00 +6°C° 0 mm 2 mps 637 mmHg 50%
    13:00 +6°C° 0 mm 1 mps 636 mmHg 53%
    14:00 +6°C° 0 mm 1 mps 636 mmHg 56%
    15:00 +6°C° 0 mm 1 mps 635 mmHg 59%
    16:00 +5°C° 0 mm 1 mps 635 mmHg 54%
    17:00 +4°C° 0 mm 1 mps 634 mmHg 49%
    18:00 +2°C° 0 mm 2 mps 634 mmHg 45%
    19:00 +2°C° 0 mm 2 mps 634 mmHg 42%
    20:00 +3°C° 0 mm 1 mps 634 mmHg 40%
    21:00 +3°C° 0 mm 1 mps 634 mmHg 38%
    22:00 +4°C° 0 mm 1 mps 633 mmHg 38%
    23:00 +4°C° 0 mm 1 mps 633 mmHg 37%

    11 December, Wednesday

    Time Temperature Precipitation Wind Pressure Humidity
    00:00 +4°C° 0 mm 1 mps 633 mmHg 37%
    01:00 +3°C° 0 mm 1 mps 633 mmHg 37%
    02:00 +3°C° 0 mm 1 mps 632 mmHg 37%
    03:00 +3°C° 0 mm 1 mps 632 mmHg 37%
    04:00 +3°C° 0 mm 1 mps 631 mmHg 40%
    05:00 +3°C° 0 mm 1 mps 631 mmHg 43%
    06:00 +1°C° 0 mm 2 mps 631 mmHg 46%
    07:00 +3°C° 0 mm 1 mps 632 mmHg 54%
    08:00 +4°C° 0 mm 1 mps 632 mmHg 62%
    09:00 +5°C° 0 mm 1 mps 633 mmHg 71%
    10:00 +6°C° 0 mm 1 mps 633 mmHg 69%
    11:00 +6°C° 0 mm 1 mps 633 mmHg 67%
    12:00 +6°C° 0 mm 1 mps 633 mmHg 65%
    13:00 +4°C° 1.3 mm 2 mps 633 mmHg 74%
    14:00 +2°C° 1.3 mm 2 mps 632 mmHg 84%
    15:00 0°C° 1.3 mm 3 mps 632 mmHg 93%
    16:00 -1°C° 1 mm 3 mps 632 mmHg 93%
    17:00 -2°C° 1 mm 3 mps 632 mmHg 93%
    18:00 -4°C° 1 mm 3 mps 632 mmHg 92%
    19:00 -5°C° 0.1 mm 3 mps 632 mmHg 92%
    20:00 -5°C° 0.1 mm 3 mps 632 mmHg 92%
    21:00 -5°C° 0.1 mm 2 mps 632 mmHg 92%
    22:00 -5°C° 0.1 mm 2 mps 632 mmHg 91%
    23:00 -5°C° 0.1 mm 2 mps 631 mmHg 91%

    12 December, Thursday

    Time Temperature Precipitation Wind Pressure Humidity
    00:00 -5°C° 0.1 mm 2 mps 631 mmHg 91%
    01:00 -5°C° 0.3 mm 2 mps 631 mmHg 92%
    02:00 -4°C° 0.3 mm 2 mps 631 mmHg 92%
    03:00 -4°C° 0.3 mm 2 mps 631 mmHg 93%
    04:00 -4°C° 0.4 mm 2 mps 631 mmHg 93%
    05:00 -4°C° 0.4 mm 2 mps 631 mmHg 93%
    06:00 -3°C° 0.4 mm 2 mps 631 mmHg 93%
    07:00 -3°C° 0.1 mm 2 mps 631 mmHg 91%
    08:00 -2°C° 0.1 mm 2 mps 632 mmHg 89%
    09:00 0°C° 0.1 mm 1 mps 632 mmHg 87%
    10:00 +1°C° 0 mm 1 mps 632 mmHg 83%
    11:00 +2°C° 0 mm 1 mps 632 mmHg 78%
    12:00 +3°C° 0 mm 1 mps 632 mmHg 74%
    13:00 +3°C° 0 mm 1 mps 631 mmHg 77%
    14:00 +3°C° 0 mm 1 mps 630 mmHg 79%
    15:00 +3°C° 0 mm 1 mps 630 mmHg 82%
    16:00 +1°C° 0 mm 1 mps 629 mmHg 85%
    17:00 0°C° 0 mm 1 mps 628 mmHg 88%
    18:00 -1°C° 0 mm 1 mps 627 mmHg 91%
    19:00 -1°C° 0.1 mm 1 mps 627 mmHg 92%
    20:00 -3°C° 0.1 mm 2 mps 626 mmHg 93%
    21:00 -3°C° 0.1 mm 2 mps 626 mmHg 93%
    22:00 -2°C° 1.3 mm 2 mps 625 mmHg 94%
    23:00 -2°C° 1.3 mm 2 mps 624 mmHg 94%
    Show more